Showing default

EXPLORER 27, 1328

Orbit data source: Space-Track

EXPLORER 27, 1328 is a payload satellite owned by GSFC (US) in LEO that was launched on Thu, 29 Apr 1965 UTC via an SCOUT X-4 launch vehicle from the Wallops Island (WLPIS). Payload-class satellites include a variety of spacecraft equipped with specific instruments for various scientific and technological missions. These include communications satellites like Starlink; space stations such as the ISS; scientific satellites like the Hubble; Earth observation satellites from companies like Planet Labs, Umbra, and HawkEye 360; GPS; miniature CubeSats for education and research; and military/defense satellites.

Loading next visibility...
Identifier
1328, 1965-032A
Orbit
LEO
Country
Flag of USUS
Related business
Manufacturer
APL
Mission
Spacecraft
Bus & Motor
TRANSIT 5, Unknown motor
Mass
55 kg wet, 55 kg dry
Launch date (UTC)
1965-04-29 (61 years ago)
Launch vehicle
SCOUT X-4
Launch site
Wallops Island (WLPIS)
Object type
Payload
Rocket body
Debris
Shape & HBR
Unknown
Radar Cross Section
Large (>1 m²)

Expand to show TLE details & history
Last TLE update: 1 day ago

TLE from 1 day ago
0 EXPLORER 27
1 01328U 65032A   25301.46450464  .00000015  00000-0  14916-3 0  9994
2 01328  41.1841 288.7656 0243263 181.1309 178.8916 13.38903162957276
Epoch: 2025-10-28T11:08Z
TLE epoch observation values (Epoch: 2025-10-28T11:08:53.200Z)
Latitude
-0.00002°
Longitude
84.4923°
Altitude
1,295.16 km
Speed
7.122 km/s
True Right ascension
19h 15m 03s
True Declination
0° 00' 00"
Sunlit
Object was in daylight at epoch
Visualization orbit readout
Latitude
Unknown
Longitude
Unknown
Altitude
Unknown
Speed
Unknown
Apparent Right ascension
Unknown
Apparent Declination
Unknown
Sunlit
N/A
Visualization observer readout
Local Sidereal Time
06:31:38
Azimuth
Unknown
Elevation
Unknown
Doppler factor
Unknown
Orbital elements
Apogee altitude
1,297.721 km
Perigee altitude
933.139 km
Semi-major axis
7,493.567 km
Eccentricity
0.02433
Inclination
41.1841°
RAAN
288.7656°
Arg. of periapsis
181.1309°
True anomaly
178.94393°
Mean anomaly
178.8916°
Eccentric anomaly
178.91792°
Mean motion
3.34588 °/min
Orbital period
107.6 mins
BSTAR
0.00014916
Loading maneuver chart data...
Computing Atmospheric mass density...
Loading historical data...
Loading historical data...
Loading historical data...
Loading historical data...
Loading historical data...
Loading historical data...
Loading historical data...
Other satellites on launch #32 in the year 1965 (1965-04-29 UTC)

Documentation

Showing up to 5 results
|